Weather in Oskarshamn

Sweden     57°15′51″N   16°26′28″E
temp.,
°C
wind,
m/s
gust,
m/s
humid.,
%
clouds,
%
prec.,
mm/h
press.,
hPa
HPBL,
m
17 april, sat
sat1723:00+4nne81470100 0.0 1027433
02:00+4nne71278100 0.0 1026362
05:00+4n6118237 0.0 1026297
08:00+5nne611785 0.0 1027344
11:00+7nne7106777 0.0 1027422
14:00+7nne71069100 0.0 1027412
17:00+6nne7127550 0.0 1027371
20:00+4nne6118885 0.0 1027315
18 april, sun
sun1823:00+4n61088100 0.0 1027267
02:00+4n510908 0.0 1027232
05:00+3n599289 0.0 1026195
08:00+5nne588596 0.0 1027223
11:00+7nne6876100 0.0 1027275
14:00+8nne687227 0.0 1027305
17:00+7nne69718 0.0 1027312
20:00+5nne510865 0.0 1027236
19 april, mon
mon1923:00+4n59930 0.0 1027190
02:00+3n510940 0.0 1027198
05:00+3n59945 0.0 1026178
08:00+6nne58800 0.0 1026229
11:00+8ne487026 0.0 1026380
14:00+9ne576435 0.0 1026638
17:00+8ne58680 0.0 1025364
20:00+5nne48820 0.0 1025183
20 april, tue
tue2023:00+4nne48902 0.0 1024154
02:00+3n47945 0.0 1023116
05:00+3n479514 0.0 1022125
08:00+6nne468123 0.0 1021212
11:00+9ne346549 0.0 1020580
14:00+8ene436437 0.0 1018794
17:00+8e326637 0.0 1017405
20:00+4se118617 0.0 101633
21 april, wed
wed2123:00+5sw23816 0.0 101434
02:00+5wsw248556 0.0 101256
05:00+6wsw4863100 0.0 1010194
08:00+8w51073100 0.1 1008375
11:00+10w610430 0.0 1005990
14:00+11w81231100 0.0 10031766
17:00+9wnw7125397 0.2 10031154
20:00+6wsw4105948 0.8 1003450